Home > Weather > Kristiansund > Past weeks

Flag for Norway Weather for the Past 2 Weeks in Kristiansund, Norway

Now
37 °F

Snow flurries. Broken clouds.


Feels Like: 28 °F
Forecast: 32 / 35 °F
Wind: 15 mph from Northeast

Location: Kristiansund / Kvernberget

Current Time: Feb 10, 2016 at 4:55:45 PM

Latest Report: Feb 10, 2016 at 4:20 PM


Visibility: N/A

Pressure: 29.33 "Hg

Humidity: 70%

Dew point: 28 °F

Location of KristiansundLocation

Historic Weather in Kristiansund — Graph

°F

Kristiansund Temperature Yesterday

Maximum temperature yesterday: 39 °F (at 11:20 AM)
Minimum temperature yesterday: 36 °F (at 3:20 AM)
Average temperature yesterday: 38 °F

High & Low Weather Summary for the Past Weeks

 TemperatureHumidityPressure
High46 °F (Jan 29, 12:20 PM)100% (Jan 27, 6:20 PM)29.83 "Hg (Jan 27, 6:20 PM)
Low30 °F (Jan 31, 5:20 PM)49% (Feb 8, 11:20 AM)28.20 "Hg (Jan 29, 7:20 PM)
Average37 °F81%29.06 "Hg
* Reported Jan 26 3:20 PM — Feb 10 3:50 PM, Kristiansund, Weather by CustomWeather, © 2016

Note: Actual official high and low records may vary slightly from our data, if they occured in-between our weather recording intervals... More about our weather records

Advertising

Kristiansund Weather History for the Previous 24 Hours

 ConditionsComfort  
Time TempWeatherWind HumidityBarometerVisibility
3:50 PM
Wed, Feb 10
39 °FBroken clouds.15 mph61%29.30 "HgN/A
3:20 PM37 °FBroken clouds.9 mph70%29.30 "HgN/A
2:50 PM39 °FScattered clouds.15 mph56%29.30 "HgN/A
2:20 PM39 °FPartly sunny.18 mph61%29.27 "HgN/A
1:50 PM39 °FBroken clouds.16 mph61%29.27 "HgN/A
1:20 PM39 °FBroken clouds.18 mph61%29.24 "HgN/A
12:50 PM39 °FBroken clouds.15 mph70%29.24 "HgN/A
12:20 PM37 °FBroken clouds.18 mph81%29.24 "HgN/A
11:50 AM39 °FScattered showers. Broken clouds.18 mph75%29.21 "HgN/A
11:20 AM37 °FScattered showers. Broken clouds.16 mph81%29.21 "HgN/A
10:50 AM37 °FSprinkles. Broken clouds.22 mph87%29.18 "HgN/A
10:20 AM37 °FScattered showers. Broken clouds.24 mph87%29.18 "HgN/A
9:50 AM37 °FLight rain. Broken clouds.22 mph87%29.15 "HgN/A
9:20 AM36 °FLight rain. Broken clouds.15 mph93%29.15 "HgN/A
8:50 AM37 °FLight rain. Broken clouds.23 mph87%29.12 "HgN/A
8:20 AM37 °FLight rain. Passing clouds.15 mph87%29.09 "HgN/A
7:50 AM37 °FRain showers. Partly cloudy.14 mph81%29.09 "HgN/A
7:20 AM37 °FLight rain. Partly cloudy.9 mph87%29.06 "HgN/A
6:50 AM36 °FPartly cloudy.1 mph81%29.06 "HgN/A
6:20 AM36 °FPartly cloudy.3 mph81%29.06 "HgN/A
5:50 AM36 °FPassing clouds.1 mph81%29.03 "HgN/A
5:20 AM36 °FDrizzle. Overcast.No wind75%29.03 "HgN/A
4:50 AM36 °FLight rain. Passing clouds.3 mph75%29.00 "HgN/A
4:20 AM36 °FOvercast.6 mph75%29.00 "HgN/A
3:50 AM36 °FOvercast.5 mph75%28.97 "HgN/A
3:20 AM36 °FOvercast.3 mph75%28.97 "HgN/A
2:50 AM36 °FOvercast.5 mph75%28.97 "HgN/A
2:20 AM36 °FOvercast.5 mph75%28.94 "HgN/A
1:20 AM37 °FOvercast.6 mph70%28.91 "HgN/A
12:50 AM37 °FMostly cloudy.5 mph70%28.91 "HgN/A
12:20 AM36 °FMostly cloudy.5 mph81%28.91 "HgN/A
11:50 PM
Tue, Feb 9
37 °FMostly cloudy.7 mph81%28.88 "HgN/A
11:20 PM37 °FLight rain. Fog.5 mph75%28.88 "HgN/A
10:20 PM37 °FPassing clouds.5 mph75%28.85 "HgN/A
9:50 PM37 °FPassing clouds.6 mph87%28.85 "HgN/A
9:20 PM39 °FPassing clouds.2 mph81%28.82 "HgN/A
8:50 PM37 °FPartly cloudy.5 mph87%28.82 "HgN/A
8:20 PM39 °FPassing clouds.5 mph81%28.82 "HgN/A
7:50 PM39 °FPassing clouds.3 mph81%28.80 "HgN/A
7:20 PM37 °FPassing clouds.5 mph87%28.80 "HgN/A
6:50 PM37 °FPartly cloudy.5 mph93%28.77 "HgN/A
6:20 PM37 °FPartly cloudy.2 mph87%28.77 "HgN/A
5:50 PM37 °FPartly cloudy.3 mph87%28.77 "HgN/A
5:20 PM37 °FPassing clouds.No wind87%28.74 "HgN/A
4:50 PM37 °FScattered showers. Partly cloudy.1 mph87%28.74 "HgN/A
4:20 PM37 °FScattered showers. Broken clouds.No wind87%28.74 "HgN/A
Weather by CustomWeather, © 2016

See weather overviewHow to use our weather pages